Weather History for Hurlburt Field, FL

Change the Weather History Date:

Saturday, November 17, 2012

  Actual Average Record
Temperature  
Mean Temperature 52 °F -  
Max Temperature 64 °F 68 °F 78 °F (2013)
Min Temperature 39 °F 49 °F 28 °F (1997)
Degree Days  
Heating Degree Days 14    
Growing Degree Days 2 (Base 50)    
Moisture  
Dew Point 45 °F    
Average Humidity 67    
Maximum Humidity 100    
Minimum Humidity 51    
Precipitation  
Precipitation 0.00 in - - ()
Sea Level Pressure  
Sea Level Pressure 30.27 in    
Wind  
Wind Speed 9 mph (NNE)    
Max Wind Speed 16 mph    
Max Gust Speed 20 mph    
Visibility 10 miles    
Events Rain    
Averages and records for this station are not official NWS values.
T = Trace of Precipitation, MM = Missing Value Source: NWS Daily Summary

Daily Weather History Graph

Daily Weather History Graph

Search for Another Location

Airport:

Trip Planner

Search our weather history database for the weather conditions in past years. The results will help you decide how hot, cold, wet, or windy it might be!

Date:

Astronomy

Nov. 17, 2012 Rise Set
Actual Time 6:14 AM CST 4:48 PM CST
Civil Twilight 5:49 AM CST 5:14 PM CST
Nautical Twilight 5:19 AM CST 5:43 PM CST
Astronomical Twilight 4:51 AM CST 6:12 PM CST
Moon 9:58 AM CST (11/17) 8:56 PM CST (11/17)
Length of Visible Light 11h 25m
Length of Day
10h 34m
Waxing Crescent, 20% of the Moon is Illuminated
Nov 17
Waxing Crescent
Nov 20
First Quarter
Nov 28
Full
Dec 6
Last Quarter
Dec 13
New

Hourly Weather History & Observations

Time (CST) Temp. Windchill Dew Point Humidity Pressure Visibility Wind Dir Wind Speed Gust Speed Precip Events Conditions
12:55 AM 41.5 °F 38.6 °F 41.4 °F 99% 30.26 in 10.0 mi NNE 4.6 mph - N/A   Clear
1:55 AM 41.2 °F 38.2 °F 41.2 °F 100% 30.26 in 10.0 mi North 4.6 mph - N/A   Clear
2:55 AM 40.6 °F 36.7 °F 40.6 °F 100% 30.27 in 10.0 mi North 5.8 mph - N/A   Clear
3:55 AM 40.1 °F 35.3 °F 40.1 °F 100% 30.28 in 8.0 mi North 6.9 mph - N/A   Clear
4:55 AM 40.6 °F 35.4 °F 40.6 °F 100% 30.28 in 10.0 mi North 8.1 mph - N/A   Clear
5:55 AM 39.2 °F 35.9 °F 39.2 °F 100% 30.30 in 10.0 mi NNE 4.6 mph - N/A   Clear
6:55 AM 42.8 °F 38.0 °F 42.8 °F 100% 30.31 in 10.0 mi NNE 8.1 mph - N/A   Clear
7:55 AM 48.2 °F - 47.7 °F 98% 30.32 in 10.0 mi NNE 8.1 mph - N/A   Clear
8:01 AM 48.2 °F - 48.2 °F 100% 30.32 in 10.0 mi NNE 8.1 mph - N/A   Light Drizzle
8:11 AM 50.0 °F - 48.2 °F 94% 30.32 in 10.0 mi NE 9.2 mph - N/A   Clear
8:55 AM 54.3 °F - 48.0 °F 79% 30.32 in 10.0 mi NE 11.5 mph 19.6 mph 0.00 in   Clear
9:55 AM 58.3 °F - 47.3 °F 67% 30.31 in 10.0 mi NE 11.5 mph - N/A   Clear
10:55 AM 61.5 °F - 47.3 °F 60% 30.30 in 10.0 mi NE 11.5 mph - N/A   Clear
10:56 AM 60.8 °F - 46.4 °F 59% 30.30 in 10.0 mi NE 10.4 mph - N/A   Light Drizzle
11:06 AM 60.8 °F - 46.4 °F 59% 30.30 in 10.0 mi NNE 8.1 mph - N/A   Clear
11:08 AM 60.8 °F - 46.4 °F 59% 30.30 in 10.0 mi NNE 11.5 mph - N/A   Light Drizzle
11:55 AM 63.1 °F - 46.2 °F 54% 30.27 in 10.0 mi Variable 6.9 mph - 0.00 in   Light Drizzle
11:57 AM 62.6 °F - 46.4 °F 55% 30.27 in 10.0 mi NNE 12.7 mph - N/A   Clear
11:58 AM 62.6 °F - 46.4 °F 55% 30.27 in 10.0 mi NE 12.7 mph - N/A   Light Drizzle
12:28 PM 64.4 °F - 46.4 °F 52% 30.26 in 10.0 mi NE 10.4 mph - N/A   Clear
12:31 PM 64.4 °F - 46.4 °F 52% 30.26 in 10.0 mi ENE 11.5 mph - N/A   Light Drizzle
12:55 PM 64.6 °F - 46.4 °F 52% 30.25 in 10.0 mi NNE 12.7 mph 18.4 mph 0.00 in   Light Drizzle
1:37 PM 64.4 °F - 46.4 °F 52% 30.23 in 10.0 mi NNE 9.2 mph - N/A   Clear
1:48 PM 64.4 °F - 46.4 °F 52% 30.23 in 10.0 mi NNE 16.1 mph - N/A   Light Drizzle
1:55 PM 64.9 °F - 46.6 °F 51% 30.23 in 10.0 mi NNE 12.7 mph - 0.00 in   Light Drizzle
2:14 PM 64.4 °F - 46.4 °F 52% 30.23 in 10.0 mi North 15.0 mph - N/A   Clear
2:18 PM 64.4 °F - 46.4 °F 52% 30.23 in 10.0 mi NNE 13.8 mph - N/A   Light Drizzle
2:50 PM 64.4 °F - 46.4 °F 52% 30.23 in 10.0 mi NNE 10.4 mph - N/A   Clear
2:54 PM 64.4 °F - 46.4 °F 52% 30.23 in 10.0 mi NNE 13.8 mph - N/A   Light Drizzle
2:55 PM 64.8 °F - 46.6 °F 52% 30.23 in 10.0 mi NNE 11.5 mph - 0.00 in   Light Drizzle
3:12 PM 64.4 °F - 46.4 °F 52% 30.23 in 10.0 mi North 11.5 mph - N/A   Clear
3:14 PM 64.4 °F - 46.4 °F 52% 30.23 in 10.0 mi NNE 11.5 mph - N/A   Light Drizzle
3:15 PM 64.4 °F - 46.4 °F 52% 30.23 in 10.0 mi NE 11.5 mph - N/A   Clear
3:16 PM 64.4 °F - 46.4 °F 52% 30.23 in 10.0 mi NE 11.5 mph - N/A   Light Drizzle
3:40 PM 62.6 °F - 46.4 °F 55% 30.24 in 10.0 mi NE 9.2 mph - N/A   Clear
3:47 PM 62.6 °F - 46.4 °F 55% 30.24 in 10.0 mi NNE 11.5 mph - N/A   Light Drizzle
3:55 PM 62.6 °F - 46.0 °F 55% 30.24 in 10.0 mi NNE 8.1 mph - 0.00 in   Light Drizzle
3:59 PM 62.6 °F - 46.4 °F 55% 30.24 in 10.0 mi NNE 10.4 mph - N/A   Clear
4:09 PM 62.6 °F - 46.4 °F 55% 30.24 in 10.0 mi NNE 11.5 mph - N/A Rain Light Rain
4:11 PM 62.6 °F - 46.4 °F 55% 30.24 in 10.0 mi NE 10.4 mph - N/A   Clear
4:55 PM 58.5 °F - 45.7 °F 62% 30.25 in 10.0 mi NNE 9.2 mph - 0.00 in   Clear
5:55 PM 52.7 °F - 44.8 °F 74% 30.26 in 10.0 mi NNE 6.9 mph - N/A   Clear
6:55 PM 49.8 °F - 44.6 °F 82% 30.28 in 10.0 mi NNE 8.1 mph - N/A   Partly Cloudy
7:55 PM 52.9 °F - 44.4 °F 73% 30.30 in 10.0 mi NNE 5.8 mph - N/A   Mostly Cloudy
8:55 PM 53.2 °F - 42.1 °F 66% 30.30 in 10.0 mi NNE 6.9 mph - N/A   Scattered Clouds
9:55 PM 52.2 °F - 41.2 °F 66% 30.29 in 9.0 mi NNE 8.1 mph - N/A   Partly Cloudy
10:55 PM 52.2 °F - 41.0 °F 66% 30.28 in 10.0 mi NNE 8.1 mph - N/A   Overcast
11:55 PM 49.6 °F - 40.1 °F 70% 30.27 in 10.0 mi NNE 6.9 mph - N/A   Partly Cloudy